This is the latest recevied weather packets stored in our database for station/object DB2AG-13. If no packets are shown the sender has not sent any weather packets the latest 10 day(s).
| Time | Temp. | Humidity | Pressure | Rain* | Wind** | Luminosity | Snow |
|---|---|---|---|---|---|---|---|
| 1788088594 | 27.22° C | 36% | 1012.8 hPa | - | - | - | - |
| 1788088050 | 26.67° C | 36% | 1012.7 hPa | - | - | - | - |
| 1788087512 | 26.67° C | 34% | 1012.8 hPa | - | - | - | - |
| 1788086975 | 26.67° C | 36% | 1012.8 hPa | - | - | - | - |
| 1788086436 | 26.67° C | 37% | 1012.7 hPa | - | - | - | - |
| 1788085893 | 25.56° C | 39% | 1012.7 hPa | - | - | - | - |
| 1788085355 | 25° C | 43% | 1012.7 hPa | - | - | - | - |
| 1788084812 | 23.89° C | 44% | 1012.8 hPa | - | - | - | - |
| 1788084270 | 23.33° C | 45% | 1012.9 hPa | - | - | - | - |
| 1788083729 | 23.33° C | 44% | 1012.9 hPa | - | - | - | - |
| 1788083193 | 22.78° C | 47% | 1012.7 hPa | - | - | - | - |
| 1788082654 | 22.78° C | 47% | 1012.6 hPa | - | - | - | - |
| 1788082119 | 22.22° C | 47% | 1012.7 hPa | - | - | - | - |
| 1788081580 | 22.78° C | 47% | 1012.6 hPa | - | - | - | - |
| 1788080503 | 23.33° C | 45% | 1012.5 hPa | - | - | - | - |
| 1788079964 | 24.44° C | 45% | 1012.3 hPa | - | - | - | - |
| 1788079424 | 25.56° C | 42% | 1012.2 hPa | - | - | - | - |
| 1788078344 | 27.22° C | 42% | 1012 hPa | - | - | - | - |
| 1788077268 | 26.11° C | 43% | 1012 hPa | - | - | - | - |
| 1788076724 | 26.67° C | 44% | 1011.8 hPa | - | - | - | - |
| 1788076185 | 26.11° C | 46% | 1011.8 hPa | - | - | - | - |
| 1788075640 | 25.56° C | 47% | 1011.7 hPa | - | - | - | - |
| 1788075101 | 25.56° C | 47% | 1011.7 hPa | - | - | - | - |
| 1788074567 | 25° C | 48% | 1011.5 hPa | - | - | - | - |
| 1788074033 | 24.44° C | 52% | 1011.3 hPa | - | - | - | - |
* Rain since midnight (hover to see other rain measurements)
** Current wind speed in m/s (hover to see current wind gust speed)